TimeEDT,TemperatureF,Dew PointF,Humidity,Sea Level PressureIn,VisibilityMPH,Wind Direction,Wind SpeedMPH,Gust SpeedMPH,PrecipitationIn,Events,Conditions,WindDirDegrees,DateUTC
12:52 AM,64.0,59.0,84,30.14,10.0,East,5.8,-,N/A,,Clear,90,2012-10-25 04:52:00
1:52 AM,63.0,59.0,87,30.15,7.0,East,6.9,-,N/A,,Overcast,90,2012-10-25 05:52:00
2:16 AM,62.6,60.8,94,30.15,6.0,East,8.1,-,N/A,,Overcast,90,2012-10-25 06:16:00
2:52 AM,63.0,60.1,90,30.15,7.0,East,6.9,-,N/A,,Overcast,90,2012-10-25 06:52:00
3:21 AM,62.6,60.8,94,30.15,8.0,East,6.9,-,N/A,,Overcast,90,2012-10-25 07:21:00
3:52 AM,63.0,60.1,90,30.15,6.0,East,5.8,-,N/A,,Overcast,100,2012-10-25 07:52:00
4:52 AM,62.1,59.0,90,30.15,6.0,East,6.9,-,N/A,,Overcast,100,2012-10-25 08:52:00
5:09 AM,62.6,59.0,88,30.15,6.0,East,5.8,-,N/A,,Overcast,100,2012-10-25 09:09:00
5:52 AM,62.1,59.0,90,30.16,6.0,East,8.1,-,N/A,,Overcast,80,2012-10-25 09:52:00
6:52 AM,62.1,57.9,86,30.17,5.0,East,5.8,-,N/A,,Overcast,80,2012-10-25 10:52:00
7:52 AM,62.1,57.9,86,30.19,4.0,ENE,5.8,-,N/A,,Overcast,70,2012-10-25 11:52:00
8:52 AM,63.0,57.9,84,30.20,5.0,East,6.9,-,N/A,,Overcast,80,2012-10-25 12:52:00
9:52 AM,63.0,57.9,84,30.21,5.0,East,6.9,-,N/A,,Overcast,90,2012-10-25 13:52:00
10:52 AM,64.0,57.9,80,30.22,5.0,ENE,6.9,-,N/A,,Overcast,60,2012-10-25 14:52:00
11:17 AM,64.4,57.2,77,30.22,6.0,ENE,8.1,-,N/A,,Overcast,60,2012-10-25 15:17:00
11:52 AM,66.0,57.9,75,30.22,7.0,East,8.1,-,N/A,,Mostly Cloudy,80,2012-10-25 15:52:00
12:30 PM,66.2,59.0,78,30.20,9.0,ESE,5.8,-,N/A,,Mostly Cloudy,110,2012-10-25 16:30:00
12:52 PM,68.0,59.0,73,30.20,10.0,SE,6.9,-,N/A,,Scattered Clouds,140,2012-10-25 16:52:00
1:52 PM,69.1,59.0,70,30.18,10.0,ESE,4.6,-,N/A,,Scattered Clouds,110,2012-10-25 17:52:00
2:52 PM,71.1,59.0,66,30.18,10.0,SE,6.9,-,N/A,,Partly Cloudy,130,2012-10-25 18:52:00
3:52 PM,70.0,60.1,71,30.18,10.0,East,5.8,-,N/A,,Partly Cloudy,100,2012-10-25 19:52:00
4:52 PM,69.1,60.1,73,30.17,10.0,Calm,Calm,-,N/A,,Clear,0,2012-10-25 20:52:00
5:52 PM,66.0,59.0,78,30.18,10.0,ENE,3.5,-,N/A,,Clear,60,2012-10-25 21:52:00
6:52 PM,63.0,59.0,87,30.19,8.0,ENE,3.5,-,N/A,,Clear,60,2012-10-25 22:52:00
7:52 PM,64.0,60.1,87,30.19,6.0,East,4.6,-,N/A,,Scattered Clouds,80,2012-10-25 23:52:00
8:09 PM,64.4,60.8,88,30.19,10.0,East,8.1,-,N/A,,Mostly Cloudy,90,2012-10-26 00:09:00
8:34 PM,64.4,59.0,83,30.19,10.0,East,9.2,-,N/A,,Partly Cloudy,80,2012-10-26 00:34:00
8:52 PM,64.0,59.0,84,30.19,10.0,East,8.1,-,N/A,,Partly Cloudy,80,2012-10-26 00:52:00
9:52 PM,64.0,57.9,80,30.19,10.0,ENE,8.1,-,N/A,,Scattered Clouds,70,2012-10-26 01:52:00
10:18 PM,64.4,59.0,83,30.19,10.0,ENE,9.2,-,N/A,,Mostly Cloudy,70,2012-10-26 02:18:00
10:52 PM,64.0,59.0,84,30.18,10.0,East,6.9,-,N/A,,Mostly Cloudy,90,2012-10-26 02:52:00
11:00 PM,64.4,59.0,83,30.18,10.0,East,6.9,-,N/A,,Overcast,90,2012-10-26 03:00:00
11:52 PM,63.0,59.0,87,30.17,10.0,East,5.8,-,N/A,,Overcast,100,2012-10-26 03:52:00